Tracking 22879 objects as of 20-Apr-2021
HD Live streaming from Space Station
objects crossing your sky now

ARIANE 5 DEB (SYLDA)

Track ARIANE 5 DEB (SYLDA) now!


NORAD ID: 45247
Int'l Code: 2020-013C
Perigee: 294.9 km
Apogee: 34,338.4 km
Inclination: 5.7 °
Period: 604.7 minutes
Semi major axis: 23687 km
RCS: Unknown
Launch date: February 18, 2020
Source: France (FR)
Launch site: FRENCH GUIANA (FRGUI)

Note: This is SATELLITE DEBRIS
aabbcc
Your satellite tracking list
Your tracking list is empty




NASA's NSSDC Master Catalog

Two Line Element Set (TLE):
1 45247U 20013C   21109.62930888  .00003481  00000-0  18771-2 0  9997
2 45247   5.7235 123.7993 7185903 181.5495 173.5942  2.38132515  9949
Source of the keplerian elements: AFSPC